TimePST,TemperatureF,Dew PointF,Humidity,Sea Level PressureIn,VisibilityMPH,Wind Direction,Wind SpeedMPH,Gust SpeedMPH,PrecipitationIn,Events,Conditions,WindDirDegrees,DateUTC
12:52 AM,50.0,43.0,77,30.16,9.0,Calm,Calm,-,N/A,,Partly Cloudy,0,2013-02-23 08:52:00
1:52 AM,50.0,39.9,68,30.14,9.0,Calm,Calm,-,N/A,,Partly Cloudy,0,2013-02-23 09:52:00
2:52 AM,48.0,37.0,66,30.13,9.0,Calm,Calm,-,N/A,,Partly Cloudy,0,2013-02-23 10:52:00
3:00 AM,-9999,-9999,N/A,-9999,-9999.0,North,-9999.0,-,N/A,,Unknown,0,2013-02-23 11:00:00
3:52 AM,48.0,37.9,68,30.11,9.0,Calm,Calm,-,N/A,,Partly Cloudy,0,2013-02-23 11:52:00
4:52 AM,46.0,37.0,71,30.11,10.0,Calm,Calm,-,N/A,,Clear,0,2013-02-23 12:52:00
5:52 AM,46.9,37.0,68,30.11,10.0,Calm,Calm,-,N/A,,Clear,0,2013-02-23 13:52:00
6:52 AM,46.0,36.0,68,30.11,10.0,Calm,Calm,-,N/A,,Partly Cloudy,0,2013-02-23 14:52:00
7:52 AM,52.0,39.0,61,30.11,10.0,East,4.6,-,N/A,,Partly Cloudy,100,2013-02-23 15:52:00
8:52 AM,57.9,37.9,47,30.11,10.0,Calm,Calm,-,N/A,,Partly Cloudy,0,2013-02-23 16:52:00
9:52 AM,61.0,37.0,41,30.12,10.0,NNW,3.5,-,N/A,,Partly Cloudy,330,2013-02-23 17:52:00
10:52 AM,61.0,42.1,50,30.09,10.0,SSW,5.8,-,N/A,,Partly Cloudy,200,2013-02-23 18:52:00
11:52 AM,63.0,45.0,52,30.07,10.0,West,9.2,-,N/A,,Partly Cloudy,270,2013-02-23 19:52:00
12:52 PM,63.0,46.9,56,30.04,10.0,West,9.2,-,N/A,,Partly Cloudy,280,2013-02-23 20:52:00
1:52 PM,63.0,48.0,58,30.01,10.0,West,10.4,-,N/A,,Scattered Clouds,270,2013-02-23 21:52:00
2:52 PM,62.1,46.9,58,29.98,10.0,West,8.1,-,N/A,,Scattered Clouds,260,2013-02-23 22:52:00
3:52 PM,60.1,48.0,64,29.96,10.0,West,8.1,-,N/A,,Scattered Clouds,270,2013-02-23 23:52:00
4:52 PM,59.0,46.9,64,29.95,10.0,WSW,5.8,-,N/A,,Scattered Clouds,240,2013-02-24 00:52:00
5:52 PM,57.0,46.9,69,29.96,10.0,WSW,5.8,-,N/A,,Scattered Clouds,240,2013-02-24 01:52:00
6:24 PM,-9999,-9999,N/A,-9999,-9999.0,North,-9999.0,-,N/A,,Unknown,0,2013-02-24 02:24:00
6:52 PM,55.9,48.9,77,29.97,9.0,Calm,Calm,-,N/A,,Mostly Cloudy,0,2013-02-24 02:52:00
7:52 PM,57.0,48.0,72,29.97,10.0,West,9.2,-,N/A,,Mostly Cloudy,260,2013-02-24 03:52:00
8:52 PM,57.0,46.0,67,29.99,10.0,WSW,4.6,-,N/A,,Mostly Cloudy,250,2013-02-24 04:52:00
9:52 PM,55.9,46.9,72,29.99,9.0,West,5.8,-,N/A,,Mostly Cloudy,260,2013-02-24 05:52:00
10:52 PM,55.9,46.9,72,29.99,10.0,Calm,Calm,-,N/A,,Mostly Cloudy,0,2013-02-24 06:52:00
11:52 PM,54.0,46.0,75,29.98,8.0,Calm,Calm,-,N/A,,Scattered Clouds,0,2013-02-24 07:52:00